星链-31165 (STARLINK-31165 )

导读 | 豆包AI

STARLINK-31165是美国SpaceX公司星链星座中的一颗近地轨道互联网通信卫星,于2024年1月7日发射升空。星链计划旨在组建覆盖全球的巨型低轨卫星星座,为全球尤其是偏远地区提供高速宽带互联网接入服务,截至目前SpaceX已申报超4万颗卫星发射需求,持续推进星座部署。

Basic Information
目录编号:
58748
目录名称:
STARLINK-31165
国际标识:
2024-005W
轨道中心:
EARTH
卫星名称:
星链-31165
卫星全名:
星链-31165 (STARLINK-31165 )
卫星状态:
在轨 (已飞行844 天)
发射日期:
2024-01-07 UTC
国别 :
美国 (US)
星等 :
--
Orbit Information
数据来源 国际轨道数据 AOE轨道数据
星历时间 2026-04-30T19:38:18+0800
11小时前
查看轨道信息
2026-04-27T12:00:00+0800
3天前
查看轨道信息
半长轴 6861.177km 6861.221km
偏心率 0.000147 0.0001552
轨道倾角 43.000° 43.003°
近地点辐角 278.034° 270.507°
升交点赤经 287.369° 306.111°
平近点角 82.034° 180.073°
近地点 482.031km 482.019km
远地点 484.049km 484.149km
周期 94.267分钟 94.267分钟
每日圈数 15.275832 15.275684
Detailed Information
固有亮度:
5
最大亮度:
0.3
卫星平台:
Starlink v2.0 mini
覆盖范围:
全球
运营商:
太空探索技术公司
运营商所在国:
美国
制造商(研发单位):
太空探索技术公司
制造商所在国:
美国
使用方式:
暂无
Satellite Introduction
星链(Starlink)计划是由太空探索技术公司(SpaceX)提出的一个巨型低轨卫星互联网星座项目,计划在2019年至2024年间在太空搭建由约1.2万颗卫星组成的“星链”网络,其中1584颗将部署在地球上空550千米处的近地轨道,并从2020年开始工作。该卫星仍在工作。
2D Orbit Map
3D Orbit Map
Orbit Altitude Analysis Chart
Orbit Inclination Analysis Chart
Orbit Comprehensive Analysis Chart
View Comprehensive Chart